Time,TemperatureF,DewpointF,PressureIn,WindDirection,WindDirectionDegrees,WindSpeedMPH,WindSpeedGustMPH,Humidity,HourlyPrecipIn,Conditions,Clouds,dailyrainin,SoftwareType,DateUTC
2013-08-10 00:00:00,51.0,-99.9,29.98,West,280,1.0,2.0,-999,-99.99,,,-99.99,,2013-08-10 07:00:00,
2013-08-10 00:33:00,51.0,-99.9,29.98,West,280,1.0,2.0,-999,-99.99,,,-99.99,,2013-08-10 07:33:00,
2013-08-10 00:43:00,51.0,-99.9,29.98,West,280,1.0,2.0,-999,-99.99,,,-99.99,,2013-08-10 07:43:00,
2013-08-10 00:52:00,51.0,-99.9,29.98,West,280,1.0,2.0,-999,-99.99,,,-99.99,,2013-08-10 07:52:00,
2013-08-10 01:00:00,52.0,-99.9,29.98,North,0,0.0,0.0,-999,-99.99,,,-99.99,,2013-08-10 08:00:00,
2013-08-10 01:32:00,52.0,-99.9,29.98,North,0,0.0,0.0,-999,-99.99,,,-99.99,,2013-08-10 08:32:00,
2013-08-10 01:43:00,52.0,-99.9,29.98,North,0,0.0,0.0,-999,-99.99,,,-99.99,,2013-08-10 08:43:00,
2013-08-10 01:53:00,52.0,-99.9,29.98,North,0,0.0,0.0,-999,-99.99,,,-99.99,,2013-08-10 08:53:00,
2013-08-10 02:00:00,51.0,-99.9,29.99,North,360,3.0,3.0,-999,-99.99,,,-99.99,,2013-08-10 09:00:00,
2013-08-10 02:32:00,51.0,-99.9,29.99,North,360,3.0,3.0,-999,-99.99,,,-99.99,,2013-08-10 09:32:00,
2013-08-10 02:43:00,51.0,-99.9,29.99,North,360,3.0,3.0,-999,-99.99,,,-99.99,,2013-08-10 09:43:00,
2013-08-10 02:52:00,51.0,-99.9,29.99,North,360,3.0,3.0,-999,-99.99,,,-99.99,,2013-08-10 09:52:00,
2013-08-10 03:00:00,52.0,-99.9,29.99,SSW,210,2.0,3.0,-999,-99.99,,,-99.99,,2013-08-10 10:00:00,
2013-08-10 03:33:00,52.0,-99.9,29.99,SSW,210,2.0,3.0,-999,-99.99,,,-99.99,,2013-08-10 10:33:00,
2013-08-10 03:44:00,52.0,-99.9,29.99,SSW,210,2.0,3.0,-999,-99.99,,,-99.99,,2013-08-10 10:44:00,
2013-08-10 03:53:00,52.0,-99.9,29.99,SSW,210,2.0,3.0,-999,-99.99,,,-99.99,,2013-08-10 10:53:00,
2013-08-10 04:00:00,51.0,-99.9,30.00,SSW,210,3.0,3.0,-999,-99.99,,,-99.99,,2013-08-10 11:00:00,
2013-08-10 04:33:00,51.0,-99.9,30.00,SSW,210,3.0,3.0,-999,-99.99,,,-99.99,,2013-08-10 11:33:00,
2013-08-10 04:43:00,51.0,-99.9,30.00,SSW,210,3.0,3.0,-999,-99.99,,,-99.99,,2013-08-10 11:43:00,
2013-08-10 04:53:00,51.0,-99.9,30.00,SSW,210,3.0,3.0,-999,-99.99,,,-99.99,,2013-08-10 11:53:00,
2013-08-10 05:00:00,51.0,-99.9,30.01,SSW,210,5.0,6.0,-999,-99.99,,,-99.99,,2013-08-10 12:00:00,
2013-08-10 05:22:00,51.0,-99.9,30.01,SSW,210,5.0,6.0,-999,-99.99,,,-99.99,,2013-08-10 12:22:00,
2013-08-10 05:32:00,51.0,-99.9,30.01,SSW,210,5.0,6.0,-999,-99.99,,,-99.99,,2013-08-10 12:32:00,
2013-08-10 05:42:00,51.0,-99.9,30.01,SSW,210,5.0,6.0,-999,-99.99,,,-99.99,,2013-08-10 12:42:00,
2013-08-10 05:52:00,51.0,-99.9,30.01,SSW,210,5.0,6.0,-999,-99.99,,,-99.99,,2013-08-10 12:52:00,
2013-08-10 06:00:00,51.0,-99.9,30.01,South,190,6.0,7.0,-999,-99.99,,,-99.99,,2013-08-10 13:00:00,
2013-08-10 06:32:00,51.0,-99.9,30.01,South,190,6.0,7.0,-999,-99.99,,,-99.99,,2013-08-10 13:32:00,
2013-08-10 06:43:00,51.0,-99.9,30.01,South,190,6.0,7.0,-999,-99.99,,,-99.99,,2013-08-10 13:43:00,
2013-08-10 06:52:00,51.0,-99.9,30.01,South,190,6.0,7.0,-999,-99.99,,,-99.99,,2013-08-10 13:52:00,
2013-08-10 07:00:00,52.0,-99.9,30.02,South,190,7.0,8.0,-999,-99.99,,,-99.99,,2013-08-10 14:00:00,
2013-08-10 07:33:00,52.0,-99.9,30.02,South,190,7.0,8.0,-999,-99.99,,,-99.99,,2013-08-10 14:33:00,
2013-08-10 07:43:00,52.0,-99.9,30.02,South,190,7.0,8.0,-999,-99.99,,,-99.99,,2013-08-10 14:43:00,
2013-08-10 07:53:00,52.0,-99.9,30.02,South,190,7.0,8.0,-999,-99.99,,,-99.99,,2013-08-10 14:53:00,
2013-08-10 08:00:00,52.0,-99.9,30.04,South,190,5.0,6.0,-999,-99.99,,,-99.99,,2013-08-10 15:00:00,
2013-08-10 08:34:00,52.0,-99.9,30.04,South,190,5.0,6.0,-999,-99.99,,,-99.99,,2013-08-10 15:34:00,
2013-08-10 08:43:00,52.0,-99.9,30.04,South,190,5.0,6.0,-999,-99.99,,,-99.99,,2013-08-10 15:43:00,
2013-08-10 08:52:00,52.0,-99.9,30.04,South,190,5.0,6.0,-999,-99.99,,,-99.99,,2013-08-10 15:52:00,
2013-08-10 09:00:00,54.0,-99.9,30.04,South,190,5.0,5.0,-999,-99.99,,,-99.99,,2013-08-10 16:00:00,
2013-08-10 09:32:00,54.0,-99.9,30.04,South,190,5.0,5.0,-999,-99.99,,,-99.99,,2013-08-10 16:32:00,
2013-08-10 09:43:00,54.0,-99.9,30.04,South,190,5.0,5.0,-999,-99.99,,,-99.99,,2013-08-10 16:43:00,
2013-08-10 09:53:00,54.0,-99.9,30.04,South,190,5.0,5.0,-999,-99.99,,,-99.99,,2013-08-10 16:53:00,
2013-08-10 10:00:00,54.0,-99.9,30.05,South,190,5.0,6.0,-999,-99.99,,,-99.99,,2013-08-10 17:00:00,
2013-08-10 10:33:00,54.0,-99.9,30.05,South,190,5.0,6.0,-999,-99.99,,,-99.99,,2013-08-10 17:33:00,
2013-08-10 10:43:00,54.0,-99.9,30.05,South,190,5.0,6.0,-999,-99.99,,,-99.99,,2013-08-10 17:43:00,
2013-08-10 10:52:00,54.0,-99.9,30.05,South,190,5.0,6.0,-999,-99.99,,,-99.99,,2013-08-10 17:52:00,
2013-08-10 11:00:00,54.0,-99.9,30.06,SSW,200,6.0,7.0,-999,-99.99,,,-99.99,,2013-08-10 18:00:00,
2013-08-10 11:32:00,54.0,-99.9,30.06,SSW,200,6.0,7.0,-999,-99.99,,,-99.99,,2013-08-10 18:32:00,
2013-08-10 11:44:00,54.0,-99.9,30.06,SSW,200,6.0,7.0,-999,-99.99,,,-99.99,,2013-08-10 18:44:00,
2013-08-10 11:52:00,54.0,-99.9,30.06,SSW,200,6.0,7.0,-999,-99.99,,,-99.99,,2013-08-10 18:52:00,
2013-08-10 12:00:00,54.0,-99.9,30.06,SSW,210,3.0,5.0,-999,-99.99,,,-99.99,,2013-08-10 19:00:00,
2013-08-10 12:33:00,54.0,-99.9,30.06,SSW,210,3.0,5.0,-999,-99.99,,,-99.99,,2013-08-10 19:33:00,
2013-08-10 12:44:00,54.0,-99.9,30.06,SSW,210,3.0,5.0,-999,-99.99,,,-99.99,,2013-08-10 19:44:00,
2013-08-10 12:53:00,54.0,-99.9,30.06,SSW,210,3.0,5.0,-999,-99.99,,,-99.99,,2013-08-10 19:53:00,
2013-08-10 13:00:00,56.0,-99.9,30.07,SSW,210,6.0,6.0,-999,-99.99,,,-99.99,,2013-08-10 20:00:00,
2013-08-10 13:33:00,56.0,-99.9,30.07,SSW,210,6.0,6.0,-999,-99.99,,,-99.99,,2013-08-10 20:33:00,
2013-08-10 13:43:00,56.0,-99.9,30.07,SSW,210,6.0,6.0,-999,-99.99,,,-99.99,,2013-08-10 20:43:00,
2013-08-10 13:53:00,56.0,-99.9,30.07,SSW,210,6.0,6.0,-999,-99.99,,,-99.99,,2013-08-10 20:53:00,
2013-08-10 14:00:00,55.0,-99.9,30.07,SSW,200,6.0,7.0,-999,-99.99,,,-99.99,,2013-08-10 21:00:00,
2013-08-10 14:32:00,55.0,-99.9,30.07,SSW,200,6.0,7.0,-999,-99.99,,,-99.99,,2013-08-10 21:32:00,
2013-08-10 14:43:00,55.0,-99.9,30.07,SSW,200,6.0,7.0,-999,-99.99,,,-99.99,,2013-08-10 21:43:00,
2013-08-10 14:52:00,55.0,-99.9,30.07,SSW,200,6.0,7.0,-999,-99.99,,,-99.99,,2013-08-10 21:52:00,
2013-08-10 15:00:00,56.0,-99.9,30.06,SSW,200,6.0,8.0,-999,-99.99,,,-99.99,,2013-08-10 22:00:00,
2013-08-10 15:32:00,56.0,-99.9,30.06,SSW,200,6.0,8.0,-999,-99.99,,,-99.99,,2013-08-10 22:32:00,
2013-08-10 15:43:00,56.0,-99.9,30.06,SSW,200,6.0,8.0,-999,-99.99,,,-99.99,,2013-08-10 22:43:00,
2013-08-10 15:53:00,56.0,-99.9,30.06,SSW,200,6.0,8.0,-999,-99.99,,,-99.99,,2013-08-10 22:53:00,
2013-08-10 16:00:00,56.0,-99.9,30.06,WSW,250,2.0,3.0,-999,-99.99,,,-99.99,,2013-08-10 23:00:00,
2013-08-10 16:33:00,56.0,-99.9,30.06,WSW,250,2.0,3.0,-999,-99.99,,,-99.99,,2013-08-10 23:33:00,
2013-08-10 16:43:00,56.0,-99.9,30.06,WSW,250,2.0,3.0,-999,-99.99,,,-99.99,,2013-08-10 23:43:00,
2013-08-10 16:53:00,56.0,-99.9,30.06,WSW,250,2.0,3.0,-999,-99.99,,,-99.99,,2013-08-10 23:53:00,
2013-08-10 17:00:00,54.0,-99.9,30.06,SW,220,2.0,3.0,-999,-99.99,,,-99.99,,2013-08-11 00:00:00,
2013-08-10 17:32:00,54.0,-99.9,30.06,SW,220,2.0,3.0,-999,-99.99,,,-99.99,,2013-08-11 00:32:00,
2013-08-10 17:42:00,54.0,-99.9,30.06,SW,220,2.0,3.0,-999,-99.99,,,-99.99,,2013-08-11 00:42:00,
2013-08-10 17:52:00,54.0,-99.9,30.06,SW,220,2.0,3.0,-999,-99.99,,,-99.99,,2013-08-11 00:52:00,
2013-08-10 18:00:00,53.0,-99.9,30.08,South,190,7.0,9.0,-999,-99.99,,,-99.99,,2013-08-11 01:00:00,
2013-08-10 18:32:00,53.0,-99.9,30.08,South,190,7.0,9.0,-999,-99.99,,,-99.99,,2013-08-11 01:32:00,
2013-08-10 18:43:00,53.0,-99.9,30.08,South,190,7.0,9.0,-999,-99.99,,,-99.99,,2013-08-11 01:43:00,
2013-08-10 18:54:00,53.0,-99.9,30.08,South,190,7.0,9.0,-999,-99.99,,,-99.99,,2013-08-11 01:54:00,
2013-08-10 19:00:00,54.0,-99.9,30.07,South,180,7.0,9.0,-999,-99.99,,,-99.99,,2013-08-11 02:00:00,
2013-08-10 19:32:00,54.0,-99.9,30.07,South,180,7.0,9.0,-999,-99.99,,,-99.99,,2013-08-11 02:32:00,
2013-08-10 19:43:00,54.0,-99.9,30.07,South,180,7.0,9.0,-999,-99.99,,,-99.99,,2013-08-11 02:43:00,
2013-08-10 19:58:00,54.0,-99.9,30.07,South,180,7.0,9.0,-999,-99.99,,,-99.99,,2013-08-11 02:58:00,
2013-08-10 20:00:00,54.0,-99.9,30.08,South,180,5.0,6.0,-999,-99.99,,,-99.99,,2013-08-11 03:00:00,
2013-08-10 20:36:00,54.0,-99.9,30.08,South,180,5.0,6.0,-999,-99.99,,,-99.99,,2013-08-11 03:36:00,
2013-08-10 20:46:00,54.0,-99.9,30.08,South,180,5.0,6.0,-999,-99.99,,,-99.99,,2013-08-11 03:46:00,
2013-08-10 20:58:00,54.0,-99.9,30.08,South,180,5.0,6.0,-999,-99.99,,,-99.99,,2013-08-11 03:58:00,
2013-08-10 21:00:00,54.0,-99.9,30.08,North,0,0.0,2.0,-999,-99.99,,,-99.99,,2013-08-11 04:00:00,
2013-08-10 21:32:00,54.0,-99.9,30.08,North,0,0.0,2.0,-999,-99.99,,,-99.99,,2013-08-11 04:32:00,
2013-08-10 21:43:00,54.0,-99.9,30.08,North,0,0.0,2.0,-999,-99.99,,,-99.99,,2013-08-11 04:43:00,
2013-08-10 21:53:00,54.0,-99.9,30.08,North,0,0.0,2.0,-999,-99.99,,,-99.99,,2013-08-11 04:53:00,
2013-08-10 22:00:00,54.0,-99.9,30.09,North,0,0.0,1.0,-999,-99.99,,,-99.99,,2013-08-11 05:00:00,
2013-08-10 22:38:00,54.0,-99.9,30.09,North,0,0.0,1.0,-999,-99.99,,,-99.99,,2013-08-11 05:38:00,
2013-08-10 22:58:00,54.0,-99.9,30.09,North,0,0.0,1.0,-999,-99.99,,,-99.99,,2013-08-11 05:58:00,
2013-08-10 23:00:00,53.0,-99.9,30.09,SW,230,3.0,3.0,-999,-99.99,,,-99.99,,2013-08-11 06:00:00,
2013-08-10 23:38:00,53.0,-99.9,30.09,SW,230,3.0,3.0,-999,-99.99,,,-99.99,,2013-08-11 06:38:00,
2013-08-10 23:49:00,53.0,-99.9,30.09,SW,230,3.0,3.0,-999,-99.99,,,-99.99,,2013-08-11 06:49:00,
2013-08-10 23:58:00,53.0,-99.9,30.09,SW,230,3.0,3.0,-999,-99.99,,,-99.99,,2013-08-11 06:58:00,